Year,Month,Day,Hour,Minute,Value (Times are PST for temperature in C)
2016,11,08,00,00,13.50
2016,11,08,00,01,13.50
2016,11,08,00,02,13.50
2016,11,08,00,03,13.60
2016,11,08,00,04,13.60
2016,11,08,00,05,13.60
2016,11,08,00,07,13.60
2016,11,08,00,09,13.60
2016,11,08,00,10,13.60
2016,11,08,00,11,13.60
2016,11,08,00,12,13.60
2016,11,08,00,13,13.60
2016,11,08,00,14,13.60
2016,11,08,00,15,13.60
2016,11,08,00,16,13.60
2016,11,08,00,17,13.60
2016,11,08,00,18,13.70
2016,11,08,00,19,13.70
2016,11,08,00,20,13.70
2016,11,08,00,22,13.70
2016,11,08,00,23,13.70
2016,11,08,00,24,13.70
2016,11,08,00,25,13.70
2016,11,08,00,26,13.70
2016,11,08,00,27,13.70
2016,11,08,00,29,13.70
2016,11,08,00,30,13.70
2016,11,08,00,32,13.70
2016,11,08,00,33,13.70
2016,11,08,00,34,13.70
2016,11,08,00,35,13.70
2016,11,08,00,37,13.70
2016,11,08,00,39,13.70
2016,11,08,00,40,13.70
2016,11,08,00,41,13.70
2016,11,08,00,42,13.70
2016,11,08,00,43,13.70
2016,11,08,00,45,13.70
2016,11,08,00,46,13.70
2016,11,08,00,47,13.70
2016,11,08,00,48,13.70
2016,11,08,00,50,13.70
2016,11,08,00,52,13.70
2016,11,08,00,53,13.70
2016,11,08,00,55,13.70
2016,11,08,00,56,13.70
2016,11,08,00,57,13.70
2016,11,08,00,58,13.70
2016,11,08,00,59,13.70
2016,11,08,01,00,13.70
2016,11,08,01,01,13.70
2016,11,08,01,02,13.70
2016,11,08,01,03,13.70
2016,11,08,01,05,13.70
2016,11,08,01,06,13.70
2016,11,08,01,07,13.70
2016,11,08,01,08,13.80
2016,11,08,01,09,13.80
2016,11,08,01,11,13.80
2016,11,08,01,12,13.80
2016,11,08,01,13,13.80
2016,11,08,01,14,13.80
2016,11,08,01,15,13.80
2016,11,08,01,16,13.80
2016,11,08,01,17,13.80
2016,11,08,01,18,13.80
2016,11,08,01,20,13.80
2016,11,08,01,21,13.80
2016,11,08,01,23,13.80
2016,11,08,01,24,13.80
2016,11,08,01,25,13.80
2016,11,08,01,27,13.80
2016,11,08,01,28,13.90
2016,11,08,01,29,13.90
2016,11,08,01,30,13.90
2016,11,08,01,31,13.90
2016,11,08,01,32,13.90
2016,11,08,01,34,13.90
2016,11,08,01,35,13.90
2016,11,08,01,36,13.90
2016,11,08,01,37,13.90
2016,11,08,01,38,13.90
2016,11,08,01,39,13.90
2016,11,08,01,40,13.90
2016,11,08,01,41,13.90
2016,11,08,01,42,13.90
2016,11,08,01,43,13.90
2016,11,08,01,45,13.90
2016,11,08,01,46,13.90
2016,11,08,01,48,13.90
2016,11,08,01,49,13.90
2016,11,08,01,50,13.90
2016,11,08,01,51,13.90
2016,11,08,01,53,13.90
2016,11,08,01,54,14.00
2016,11,08,01,56,14.00
2016,11,08,01,57,14.00
2016,11,08,01,59,14.00
2016,11,08,02,00,14.00
2016,11,08,02,01,14.00
2016,11,08,02,02,14.00
2016,11,08,02,04,13.90
2016,11,08,02,05,14.00
2016,11,08,02,06,13.90
2016,11,08,02,07,14.00
2016,11,08,02,08,14.00
2016,11,08,02,10,14.00
2016,11,08,02,11,14.00
2016,11,08,02,13,14.00
2016,11,08,02,14,14.00
2016,11,08,02,15,14.00
2016,11,08,02,16,14.00
2016,11,08,02,17,14.00
2016,11,08,02,18,14.00
2016,11,08,02,19,14.00
2016,11,08,02,20,14.00
2016,11,08,02,21,14.00
2016,11,08,02,22,14.00
2016,11,08,02,24,14.10
2016,11,08,02,25,14.10
2016,11,08,02,26,14.10
2016,11,08,02,27,14.10
2016,11,08,02,28,14.10
2016,11,08,02,29,14.10
2016,11,08,02,31,14.10
2016,11,08,02,32,14.10
2016,11,08,02,34,14.10
2016,11,08,02,35,14.10
2016,11,08,02,37,14.10
2016,11,08,02,39,14.20
2016,11,08,02,40,14.20
2016,11,08,02,42,14.20
2016,11,08,02,43,14.20
2016,11,08,02,45,14.30
2016,11,08,02,46,14.30
2016,11,08,02,48,14.30
2016,11,08,02,49,14.30
2016,11,08,02,50,14.30
2016,11,08,02,51,14.30
2016,11,08,02,52,14.30
2016,11,08,02,54,14.30
2016,11,08,02,56,14.30
2016,11,08,02,58,14.30
2016,11,08,03,00,14.30
2016,11,08,03,01,14.30
2016,11,08,03,02,14.30
2016,11,08,03,04,14.30
2016,11,08,03,06,14.30
2016,11,08,03,07,14.40
2016,11,08,03,09,14.50
2016,11,08,03,10,14.60
2016,11,08,03,12,14.70
2016,11,08,03,13,14.70
2016,11,08,03,14,14.80
2016,11,08,03,15,14.80
2016,11,08,03,17,14.90
2016,11,08,03,18,14.90
2016,11,08,03,19,14.90
2016,11,08,03,20,14.90
2016,11,08,03,21,14.90
2016,11,08,03,22,15.00
2016,11,08,03,24,15.10
2016,11,08,03,25,15.10
2016,11,08,03,26,15.20
2016,11,08,03,27,15.20
2016,11,08,03,28,15.20
2016,11,08,03,30,15.20
2016,11,08,03,31,15.20
2016,11,08,03,32,15.30
2016,11,08,03,33,15.30
2016,11,08,03,34,15.30
2016,11,08,03,35,15.30
2016,11,08,03,36,15.30
2016,11,08,03,37,15.40
2016,11,08,03,38,15.40
2016,11,08,03,39,15.40
2016,11,08,03,40,15.40
2016,11,08,03,42,15.40
2016,11,08,03,43,15.40
2016,11,08,03,44,15.40
2016,11,08,03,46,15.40
2016,11,08,03,47,15.40
2016,11,08,03,48,15.40
2016,11,08,03,49,15.40
2016,11,08,03,50,15.40
2016,11,08,03,51,15.40
2016,11,08,03,53,15.40
2016,11,08,03,54,15.40
2016,11,08,03,55,15.40
2016,11,08,03,56,15.40
2016,11,08,03,57,15.40
2016,11,08,03,58,15.40
2016,11,08,03,59,15.40
2016,11,08,04,01,15.50
2016,11,08,04,02,15.60
2016,11,08,04,03,15.60
2016,11,08,04,05,15.60
2016,11,08,04,06,15.60
2016,11,08,04,07,15.60
2016,11,08,04,08,15.60
2016,11,08,04,10,15.60
2016,11,08,04,11,15.60
2016,11,08,04,12,15.70
2016,11,08,04,14,15.70
2016,11,08,04,15,15.70
2016,11,08,04,17,15.70
2016,11,08,04,18,15.70
2016,11,08,04,19,15.60
2016,11,08,04,21,15.70
2016,11,08,04,23,15.70
2016,11,08,04,24,15.60
2016,11,08,04,25,15.60
2016,11,08,04,26,15.60
2016,11,08,04,28,15.60
2016,11,08,04,30,15.60
2016,11,08,04,31,15.60
2016,11,08,04,33,15.60
2016,11,08,04,34,15.60
2016,11,08,04,35,15.60
2016,11,08,04,36,15.60
2016,11,08,04,37,15.60
2016,11,08,04,39,15.60
2016,11,08,04,40,15.60
2016,11,08,04,42,15.50
2016,11,08,04,43,15.50
2016,11,08,04,45,15.40
2016,11,08,04,46,15.40
2016,11,08,04,47,15.40
2016,11,08,04,49,15.40
2016,11,08,04,51,15.30
2016,11,08,04,52,15.30
2016,11,08,04,53,15.30
2016,11,08,04,54,15.20
2016,11,08,04,55,15.20
2016,11,08,04,56,15.20
2016,11,08,04,58,15.10
2016,11,08,05,00,15.00
2016,11,08,05,01,14.90
2016,11,08,05,02,14.90
2016,11,08,05,03,14.90
2016,11,08,05,05,14.90
2016,11,08,05,06,14.80
2016,11,08,05,07,14.80
2016,11,08,05,08,14.80
2016,11,08,05,09,14.80
2016,11,08,05,10,14.80
2016,11,08,05,11,14.80
2016,11,08,05,13,14.70
2016,11,08,05,15,14.70
2016,11,08,05,16,14.70
2016,11,08,05,18,14.70
2016,11,08,05,19,14.70
2016,11,08,05,20,14.70
2016,11,08,05,21,14.70
2016,11,08,05,22,14.70
2016,11,08,05,23,14.70
2016,11,08,05,24,14.60
2016,11,08,05,26,14.60
2016,11,08,05,27,14.60
2016,11,08,05,28,14.60
2016,11,08,05,29,14.60
2016,11,08,05,30,14.70
2016,11,08,05,31,14.70
2016,11,08,05,32,14.70
2016,11,08,05,33,14.70
2016,11,08,05,34,14.70
2016,11,08,05,35,14.70
2016,11,08,05,36,14.70
2016,11,08,05,38,14.70
2016,11,08,05,40,14.70
2016,11,08,05,41,14.70
2016,11,08,05,42,14.70
2016,11,08,05,44,14.70
2016,11,08,05,45,14.70
2016,11,08,05,46,14.70
2016,11,08,05,48,14.70
2016,11,08,05,49,14.70
2016,11,08,05,50,14.70
2016,11,08,05,51,14.70
2016,11,08,05,53,14.70
2016,11,08,05,54,14.70
2016,11,08,05,56,14.70
2016,11,08,05,57,14.70
2016,11,08,05,58,14.70
2016,11,08,05,59,14.70
2016,11,08,06,00,14.80
2016,11,08,06,01,14.80
2016,11,08,06,02,14.80
2016,11,08,06,04,14.80
2016,11,08,06,05,14.80
2016,11,08,06,06,14.90
2016,11,08,06,08,14.90
2016,11,08,06,09,14.90
2016,11,08,06,11,15.00
2016,11,08,06,12,15.00
2016,11,08,06,13,15.10
2016,11,08,06,14,15.10
2016,11,08,06,16,15.10
2016,11,08,06,17,15.10
2016,11,08,06,18,15.20
2016,11,08,06,19,15.20
2016,11,08,06,21,15.30
2016,11,08,06,23,15.30
2016,11,08,06,24,15.30
2016,11,08,06,26,15.30
2016,11,08,06,28,15.30
2016,11,08,06,29,15.30
2016,11,08,06,31,15.30
2016,11,08,06,32,15.30
2016,11,08,06,33,15.40
2016,11,08,06,35,15.40
2016,11,08,06,36,15.40
2016,11,08,06,38,15.40
2016,11,08,06,39,15.40
2016,11,08,06,40,15.40
2016,11,08,06,41,15.60
2016,11,08,06,42,15.60
2016,11,08,06,43,15.70
2016,11,08,06,45,15.70
2016,11,08,06,46,15.70
2016,11,08,06,47,15.70
2016,11,08,06,48,15.60
2016,11,08,06,49,15.60
2016,11,08,06,51,15.60
2016,11,08,06,52,15.60
2016,11,08,06,53,15.60
2016,11,08,06,55,15.60
2016,11,08,06,56,15.50
2016,11,08,06,58,15.50
2016,11,08,06,59,15.50
2016,11,08,07,01,15.50
2016,11,08,07,02,15.50
2016,11,08,07,03,15.50
2016,11,08,07,04,15.50
2016,11,08,07,05,15.50
2016,11,08,07,06,15.50
2016,11,08,07,07,15.40
2016,11,08,07,09,15.40
2016,11,08,07,10,15.40
2016,11,08,07,11,15.40
2016,11,08,07,12,15.40
2016,11,08,07,14,15.40
2016,11,08,07,15,15.40
2016,11,08,07,16,15.40
2016,11,08,07,17,15.40
2016,11,08,07,19,15.40
2016,11,08,07,21,15.40
2016,11,08,07,22,15.40
2016,11,08,07,23,15.40
2016,11,08,07,24,15.40
2016,11,08,07,26,15.40
2016,11,08,07,27,15.40
2016,11,08,07,29,15.40
2016,11,08,07,30,15.40
2016,11,08,07,31,15.40
2016,11,08,07,32,15.40
2016,11,08,07,33,15.40
2016,11,08,07,35,15.40
2016,11,08,07,36,15.40
2016,11,08,07,37,15.40
2016,11,08,07,39,15.40
2016,11,08,07,40,15.40
2016,11,08,07,41,15.30
2016,11,08,07,42,15.30
2016,11,08,07,43,15.30
2016,11,08,07,44,15.30
2016,11,08,07,45,15.30
2016,11,08,07,46,15.30
2016,11,08,07,47,15.30
2016,11,08,07,48,15.30
2016,11,08,07,50,15.30
2016,11,08,07,51,15.20
2016,11,08,07,52,15.20
2016,11,08,07,53,15.20
2016,11,08,07,54,15.20
2016,11,08,07,55,15.20
2016,11,08,07,56,15.20
2016,11,08,07,57,15.20
2016,11,08,07,58,15.30
2016,11,08,07,59,15.20
2016,11,08,08,00,15.30
2016,11,08,08,02,15.30
2016,11,08,08,03,15.30
2016,11,08,08,04,15.30
2016,11,08,08,05,15.30
2016,11,08,08,07,15.30
2016,11,08,08,08,15.30
2016,11,08,08,09,15.30
2016,11,08,08,11,15.30
2016,11,08,08,12,15.30
2016,11,08,08,13,15.30
2016,11,08,08,14,15.30
2016,11,08,08,15,15.30
2016,11,08,08,16,15.30
2016,11,08,08,17,15.30
2016,11,08,08,19,15.40
2016,11,08,08,21,15.40
2016,11,08,08,22,15.40
2016,11,08,08,23,15.40
2016,11,08,08,24,15.40
2016,11,08,08,25,15.40
2016,11,08,08,26,15.40
2016,11,08,08,28,15.40
2016,11,08,08,29,15.50
2016,11,08,08,31,15.50
2016,11,08,08,32,15.50
2016,11,08,08,34,15.60
2016,11,08,08,35,15.60
2016,11,08,08,36,15.60
2016,11,08,08,37,15.60
2016,11,08,08,39,15.60
2016,11,08,08,40,15.60
2016,11,08,08,41,15.60
2016,11,08,08,42,15.60
2016,11,08,08,44,15.60
2016,11,08,08,46,15.60
2016,11,08,08,47,15.60
2016,11,08,08,48,15.60
2016,11,08,08,50,15.60
2016,11,08,08,51,15.70
2016,11,08,08,52,15.70
2016,11,08,08,53,15.70
2016,11,08,08,54,15.70
2016,11,08,08,55,15.70
2016,11,08,08,56,15.70
2016,11,08,08,57,15.70
2016,11,08,08,58,15.70
2016,11,08,08,59,15.70
2016,11,08,09,00,15.80
2016,11,08,09,01,15.80
2016,11,08,09,02,15.70
2016,11,08,09,04,15.70
2016,11,08,09,05,15.70
2016,11,08,09,07,15.70
2016,11,08,09,08,15.70
2016,11,08,09,10,15.70
2016,11,08,09,11,15.70
2016,11,08,09,12,15.70
2016,11,08,09,13,15.70
2016,11,08,09,15,15.70
2016,11,08,09,16,15.70
2016,11,08,09,17,15.70
2016,11,08,09,19,15.70
2016,11,08,09,20,15.80
2016,11,08,09,21,15.80
2016,11,08,09,22,15.80
2016,11,08,09,23,15.80
2016,11,08,09,24,15.80
2016,11,08,09,26,15.80
2016,11,08,09,27,15.80
2016,11,08,09,28,15.80
2016,11,08,09,29,15.80
2016,11,08,09,30,15.80
2016,11,08,09,31,15.90
2016,11,08,09,32,15.90
2016,11,08,09,34,15.90
2016,11,08,09,35,16.00
2016,11,08,09,37,16.10
2016,11,08,09,39,16.00
2016,11,08,09,40,16.00
2016,11,08,09,41,16.10
2016,11,08,09,42,16.10
2016,11,08,09,43,16.10
2016,11,08,09,45,16.10
2016,11,08,09,46,16.10
2016,11,08,09,48,16.10
2016,11,08,09,50,16.10
2016,11,08,09,51,16.10
2016,11,08,09,53,16.10
2016,11,08,09,54,16.10
2016,11,08,09,56,16.10
2016,11,08,09,57,16.10
2016,11,08,09,58,16.10
2016,11,08,09,59,16.10
2016,11,08,10,00,16.10
2016,11,08,10,01,16.10
2016,11,08,10,03,16.10
2016,11,08,10,04,16.10
2016,11,08,10,05,16.10
2016,11,08,10,06,16.10
2016,11,08,10,07,16.10
2016,11,08,10,08,16.20
2016,11,08,10,09,16.20
2016,11,08,10,10,16.20
2016,11,08,10,11,16.20
2016,11,08,10,12,16.20
2016,11,08,10,13,16.20
2016,11,08,10,15,16.10
2016,11,08,10,16,16.20
2016,11,08,10,17,16.20
2016,11,08,10,18,16.20
2016,11,08,10,19,16.20
2016,11,08,10,20,16.20
2016,11,08,10,22,16.20
2016,11,08,10,23,16.20
2016,11,08,10,24,16.20
2016,11,08,10,26,16.20
2016,11,08,10,27,16.20
2016,11,08,10,28,16.20
2016,11,08,10,29,16.20
2016,11,08,10,30,16.20
2016,11,08,10,32,16.20
2016,11,08,10,33,16.20
2016,11,08,10,34,16.20
2016,11,08,10,36,16.20
2016,11,08,10,37,16.20
2016,11,08,10,38,16.20
2016,11,08,10,40,16.10
2016,11,08,10,41,16.10
2016,11,08,10,42,16.10
2016,11,08,10,44,16.10
2016,11,08,10,45,16.10
2016,11,08,10,47,16.10
2016,11,08,10,49,16.10
2016,11,08,10,51,16.10
2016,11,08,10,52,16.10
2016,11,08,10,53,16.10
2016,11,08,10,54,16.10
2016,11,08,10,55,16.10
2016,11,08,10,56,16.00
2016,11,08,10,57,16.00
2016,11,08,10,58,16.00
2016,11,08,10,59,16.00
2016,11,08,11,01,16.00
2016,11,08,11,03,16.00
2016,11,08,11,04,16.00
2016,11,08,11,05,16.00
2016,11,08,11,06,16.00
2016,11,08,11,07,16.00
2016,11,08,11,09,15.90
2016,11,08,11,10,15.90
2016,11,08,11,11,15.90
2016,11,08,11,12,15.90
2016,11,08,11,13,15.90
2016,11,08,11,14,16.00
2016,11,08,11,15,16.00
2016,11,08,11,17,16.00
2016,11,08,11,18,16.00
2016,11,08,11,19,16.00
2016,11,08,11,20,16.00
2016,11,08,11,21,16.00
2016,11,08,11,22,16.00
2016,11,08,11,23,16.00
2016,11,08,11,24,16.00
2016,11,08,11,26,16.10
2016,11,08,11,27,16.10
2016,11,08,11,29,16.10
2016,11,08,11,30,16.20
2016,11,08,11,31,16.20
2016,11,08,11,32,16.20
2016,11,08,11,34,16.30
2016,11,08,11,35,16.30
2016,11,08,11,36,16.30
2016,11,08,11,37,16.40
2016,11,08,11,38,16.40
2016,11,08,11,39,16.50
2016,11,08,11,40,16.50
2016,11,08,11,41,16.50
2016,11,08,11,42,16.60
2016,11,08,11,44,16.60
2016,11,08,11,45,16.60
2016,11,08,11,46,16.60
2016,11,08,11,47,16.60
2016,11,08,11,48,16.60
2016,11,08,11,49,16.60
2016,11,08,11,50,16.60
2016,11,08,11,51,16.70
2016,11,08,11,52,16.70
2016,11,08,11,53,16.70
2016,11,08,11,55,16.80
2016,11,08,11,57,16.90
2016,11,08,11,58,16.90
2016,11,08,11,59,16.90
2016,11,08,12,01,17.00
2016,11,08,12,02,17.10
2016,11,08,12,03,17.10
2016,11,08,12,04,17.10
2016,11,08,12,06,17.00
2016,11,08,12,07,17.00
2016,11,08,12,09,17.00
2016,11,08,12,10,17.00
2016,11,08,12,11,16.90
2016,11,08,12,12,16.90
2016,11,08,12,13,16.90
2016,11,08,12,15,16.90
2016,11,08,12,16,16.80
2016,11,08,12,17,16.80
2016,11,08,12,18,16.80
2016,11,08,12,19,16.80
2016,11,08,12,21,16.80
2016,11,08,12,22,16.80
2016,11,08,12,23,16.70
2016,11,08,12,24,16.70
2016,11,08,12,25,16.70
2016,11,08,12,27,16.60
2016,11,08,12,28,16.60
2016,11,08,12,29,16.60
2016,11,08,12,30,16.50
2016,11,08,12,31,16.50
2016,11,08,12,32,16.40
2016,11,08,12,34,16.40
2016,11,08,12,35,16.40
2016,11,08,12,36,16.40
2016,11,08,12,38,16.30
2016,11,08,12,40,16.30
2016,11,08,12,41,16.30
2016,11,08,12,42,16.40
2016,11,08,12,44,16.30
2016,11,08,12,45,16.30
2016,11,08,12,46,16.30
2016,11,08,12,48,16.30
2016,11,08,12,49,16.30
2016,11,08,12,50,16.30
2016,11,08,12,51,16.30
2016,11,08,12,53,16.30
2016,11,08,12,54,16.30
2016,11,08,12,55,16.30
2016,11,08,12,57,16.30
2016,11,08,12,58,16.20
2016,11,08,12,59,16.20
2016,11,08,13,00,16.20
2016,11,08,13,01,16.20
2016,11,08,13,02,16.20
2016,11,08,13,03,16.20
2016,11,08,13,04,16.20
2016,11,08,13,06,16.20
2016,11,08,13,07,16.20
2016,11,08,13,08,16.20
2016,11,08,13,10,16.20
2016,11,08,13,12,16.30
2016,11,08,13,13,16.30
2016,11,08,13,15,16.30
2016,11,08,13,16,16.30
2016,11,08,13,17,16.30
2016,11,08,13,19,16.40
2016,11,08,13,21,16.40
2016,11,08,13,22,16.40
2016,11,08,13,23,16.40
2016,11,08,13,24,16.50
2016,11,08,13,26,16.60
2016,11,08,13,27,16.60
2016,11,08,13,29,16.60
2016,11,08,13,30,16.60
2016,11,08,13,31,16.60
2016,11,08,13,32,16.60
2016,11,08,13,33,16.60
2016,11,08,13,34,16.60
2016,11,08,13,36,16.60
2016,11,08,13,38,16.60
2016,11,08,13,39,16.60
2016,11,08,13,40,16.60
2016,11,08,13,41,16.60
2016,11,08,13,43,16.50
2016,11,08,13,44,16.60
2016,11,08,13,45,16.50
2016,11,08,13,46,16.50
2016,11,08,13,48,16.50
2016,11,08,13,49,16.50
2016,11,08,13,51,16.50
2016,11,08,13,52,16.50
2016,11,08,13,54,16.60
2016,11,08,13,55,16.60
2016,11,08,13,56,16.60
2016,11,08,13,57,16.60
2016,11,08,13,59,16.60
2016,11,08,14,00,16.60
2016,11,08,14,01,16.60
2016,11,08,14,02,16.50
2016,11,08,14,03,16.50
2016,11,08,14,05,16.40
2016,11,08,14,07,16.30
2016,11,08,14,08,16.20
2016,11,08,14,10,16.10
2016,11,08,14,11,16.10
2016,11,08,14,12,16.10
2016,11,08,14,14,16.00
2016,11,08,14,15,16.00
2016,11,08,14,16,15.90
2016,11,08,14,17,15.90
2016,11,08,14,18,15.90
2016,11,08,14,19,15.80
2016,11,08,14,20,15.80
2016,11,08,14,21,15.80
2016,11,08,14,22,15.80
2016,11,08,14,24,15.70
2016,11,08,14,25,15.70
2016,11,08,14,26,15.70
2016,11,08,14,27,15.70
2016,11,08,14,28,15.70
2016,11,08,14,30,15.70
2016,11,08,14,31,15.70
2016,11,08,14,33,15.70
2016,11,08,14,34,15.60
2016,11,08,14,35,15.60
2016,11,08,14,36,15.60
2016,11,08,14,38,15.60
2016,11,08,14,39,15.60
2016,11,08,14,41,15.60
2016,11,08,14,42,15.60
2016,11,08,14,44,15.60
2016,11,08,14,45,15.60
2016,11,08,14,46,15.60
2016,11,08,14,47,15.60
2016,11,08,14,48,15.60
2016,11,08,14,49,15.50
2016,11,08,14,50,15.50
2016,11,08,14,52,15.40
2016,11,08,14,54,15.40
2016,11,08,14,55,15.40
2016,11,08,14,56,15.40
2016,11,08,14,58,15.30
2016,11,08,14,59,15.30
2016,11,08,15,01,15.30
2016,11,08,15,02,15.30
2016,11,08,15,03,15.30
2016,11,08,15,04,15.30
2016,11,08,15,05,15.30
2016,11,08,15,07,15.40
2016,11,08,15,08,15.40
2016,11,08,15,10,15.50
2016,11,08,15,12,15.60
2016,11,08,15,13,15.70
2016,11,08,15,15,15.70
2016,11,08,15,16,15.70
2016,11,08,15,17,15.70
2016,11,08,15,19,15.70
2016,11,08,15,21,15.70
2016,11,08,15,22,15.70
2016,11,08,15,23,15.70
2016,11,08,15,24,15.70
2016,11,08,15,26,15.70
2016,11,08,15,27,15.70
2016,11,08,15,28,15.60
2016,11,08,15,29,15.60
2016,11,08,15,30,15.60
2016,11,08,15,32,15.40
2016,11,08,15,33,15.40
2016,11,08,15,34,15.40
2016,11,08,15,35,15.40
2016,11,08,15,37,15.30
2016,11,08,15,38,15.30
2016,11,08,15,39,15.30
2016,11,08,15,40,15.30
2016,11,08,15,42,15.30
2016,11,08,15,44,15.20
2016,11,08,15,46,15.20
2016,11,08,15,47,15.20
2016,11,08,15,48,15.20
2016,11,08,15,50,15.10
2016,11,08,15,51,15.10
2016,11,08,15,53,15.10
2016,11,08,15,54,15.10
2016,11,08,15,55,15.10
2016,11,08,15,56,15.10
2016,11,08,15,58,15.10
2016,11,08,16,00,15.10
2016,11,08,16,01,15.10
2016,11,08,16,03,15.10
2016,11,08,16,05,15.10
2016,11,08,16,06,15.10
2016,11,08,16,08,15.10
2016,11,08,16,09,15.10
2016,11,08,16,11,15.10
2016,11,08,16,12,15.10
2016,11,08,16,13,15.10
2016,11,08,16,14,15.10
2016,11,08,16,15,15.20
2016,11,08,16,16,15.20
2016,11,08,16,17,15.20
2016,11,08,16,19,15.20
2016,11,08,16,20,15.10
2016,11,08,16,22,15.20
2016,11,08,16,23,15.20
2016,11,08,16,25,15.20
2016,11,08,16,26,15.30
2016,11,08,16,28,15.30
2016,11,08,16,29,15.30
2016,11,08,16,31,15.30
2016,11,08,16,32,15.30
2016,11,08,16,34,15.30
2016,11,08,16,35,15.30
2016,11,08,16,36,15.30
2016,11,08,16,37,15.30
2016,11,08,16,38,15.30
2016,11,08,16,40,15.30
2016,11,08,16,41,15.30
2016,11,08,16,42,15.30
2016,11,08,16,43,15.30
2016,11,08,16,45,15.30
2016,11,08,16,46,15.20
2016,11,08,16,47,15.20
2016,11,08,16,48,15.20
2016,11,08,16,50,15.20
2016,11,08,16,52,15.20
2016,11,08,16,53,15.20
2016,11,08,16,54,15.10
2016,11,08,16,55,15.10
2016,11,08,16,56,15.10
2016,11,08,16,57,15.10
2016,11,08,16,59,15.10
2016,11,08,17,00,15.10
2016,11,08,17,01,15.10
2016,11,08,17,02,15.10
2016,11,08,17,04,15.10
2016,11,08,17,05,15.10
2016,11,08,17,06,15.10
2016,11,08,17,07,15.10
2016,11,08,17,08,15.00
2016,11,08,17,09,15.00
2016,11,08,17,10,15.00
2016,11,08,17,11,14.90
2016,11,08,17,13,14.90
2016,11,08,17,15,14.80
2016,11,08,17,16,14.80
2016,11,08,17,18,14.80
2016,11,08,17,19,14.80
2016,11,08,17,20,14.80
2016,11,08,17,22,14.70
2016,11,08,17,23,14.70
2016,11,08,17,25,14.70
2016,11,08,17,26,14.70
2016,11,08,17,27,14.70
2016,11,08,17,29,14.70
2016,11,08,17,30,14.70
2016,11,08,17,32,14.70
2016,11,08,17,33,14.80
2016,11,08,17,34,14.70
2016,11,08,17,35,14.70
2016,11,08,17,37,14.70
2016,11,08,17,38,14.70
2016,11,08,17,40,14.70
2016,11,08,17,42,14.80
2016,11,08,17,43,14.80
2016,11,08,17,45,14.90
2016,11,08,17,46,14.90
2016,11,08,17,47,14.90
2016,11,08,17,48,14.90
2016,11,08,17,49,14.90
2016,11,08,17,50,15.00
2016,11,08,17,51,15.00
2016,11,08,17,53,15.00
2016,11,08,17,54,15.00
2016,11,08,17,55,15.10
2016,11,08,17,57,15.10
2016,11,08,17,59,15.20
2016,11,08,18,00,15.20
2016,11,08,18,01,15.20
2016,11,08,18,03,15.30
2016,11,08,18,04,15.30
2016,11,08,18,05,15.30
2016,11,08,18,06,15.30
2016,11,08,18,07,15.30
2016,11,08,18,08,15.30
2016,11,08,18,10,15.30
2016,11,08,18,11,15.30
2016,11,08,18,12,15.30
2016,11,08,18,14,15.30
2016,11,08,18,15,15.30
2016,11,08,18,16,15.30
2016,11,08,18,17,15.30
2016,11,08,18,18,15.30
2016,11,08,18,19,15.30
2016,11,08,18,20,15.30
2016,11,08,18,22,15.30
2016,11,08,18,23,15.30
2016,11,08,18,24,15.30
2016,11,08,18,26,15.30
2016,11,08,18,27,15.30
2016,11,08,18,28,15.30
2016,11,08,18,30,15.30
2016,11,08,18,31,15.30
2016,11,08,18,32,15.30
2016,11,08,18,33,15.30
2016,11,08,18,35,15.30
2016,11,08,18,37,15.30
2016,11,08,18,38,15.30
2016,11,08,18,39,15.20
2016,11,08,18,40,15.20
2016,11,08,18,41,15.20
2016,11,08,18,42,15.30
2016,11,08,18,44,15.30
2016,11,08,18,45,15.20
2016,11,08,18,46,15.20
2016,11,08,18,47,15.30
2016,11,08,18,48,15.30
2016,11,08,18,49,15.30
2016,11,08,18,50,15.30
2016,11,08,18,52,15.30
2016,11,08,18,53,15.30
2016,11,08,18,54,15.30
2016,11,08,18,55,15.20
2016,11,08,18,56,15.30
2016,11,08,18,57,15.20
2016,11,08,18,58,15.20
2016,11,08,18,59,15.30
2016,11,08,19,01,15.20
2016,11,08,19,03,15.20
2016,11,08,19,05,15.20
2016,11,08,19,06,15.20
2016,11,08,19,08,15.20
2016,11,08,19,09,15.20
2016,11,08,19,11,15.20
2016,11,08,19,12,15.20
2016,11,08,19,13,15.10
2016,11,08,19,15,15.10
2016,11,08,19,16,15.10
2016,11,08,19,18,15.00
2016,11,08,19,19,15.00
2016,11,08,19,21,14.90
2016,11,08,19,22,14.90
2016,11,08,19,23,14.90
2016,11,08,19,25,14.80
2016,11,08,19,27,14.80
2016,11,08,19,29,14.80
2016,11,08,19,31,14.80
2016,11,08,19,32,14.80
2016,11,08,19,33,14.80
2016,11,08,19,34,14.80
2016,11,08,19,35,14.80
2016,11,08,19,36,14.80
2016,11,08,19,38,14.80
2016,11,08,19,40,14.80
2016,11,08,19,42,14.80
2016,11,08,19,43,14.80
2016,11,08,19,44,14.80
2016,11,08,19,45,14.80
2016,11,08,19,46,14.80
2016,11,08,19,47,14.80
2016,11,08,19,49,14.80
2016,11,08,19,50,14.80
2016,11,08,19,51,14.80
2016,11,08,19,52,14.80
2016,11,08,19,53,14.80
2016,11,08,19,54,14.80
2016,11,08,19,55,14.80
2016,11,08,19,57,14.80
2016,11,08,19,59,14.80
2016,11,08,20,01,14.80
2016,11,08,20,03,14.80
2016,11,08,20,04,14.80
2016,11,08,20,05,14.80
2016,11,08,20,06,14.80
2016,11,08,20,08,14.80
2016,11,08,20,09,14.80
2016,11,08,20,10,14.80
2016,11,08,20,11,14.80
2016,11,08,20,13,14.80
2016,11,08,20,15,14.80
2016,11,08,20,16,14.90
2016,11,08,20,17,14.90
2016,11,08,20,18,14.90
2016,11,08,20,19,14.90
2016,11,08,20,21,14.90
2016,11,08,20,22,14.90
2016,11,08,20,23,14.90
2016,11,08,20,24,14.90
2016,11,08,20,26,14.90
2016,11,08,20,27,14.90
2016,11,08,20,28,14.90
2016,11,08,20,29,14.90
2016,11,08,20,30,14.80
2016,11,08,20,31,14.80
2016,11,08,20,32,14.80
2016,11,08,20,34,14.80
2016,11,08,20,35,14.80
2016,11,08,20,36,14.80
2016,11,08,20,38,14.80
2016,11,08,20,39,14.90
2016,11,08,20,40,14.90
2016,11,08,20,41,14.90
2016,11,08,20,43,14.90
2016,11,08,20,45,14.90
2016,11,08,20,46,14.90
2016,11,08,20,47,15.00
2016,11,08,20,48,14.90
2016,11,08,20,49,14.90
2016,11,08,20,51,15.00
2016,11,08,20,52,15.10
2016,11,08,20,53,15.10
2016,11,08,20,54,15.20
2016,11,08,20,56,15.20
2016,11,08,20,57,15.20
2016,11,08,20,58,15.20
2016,11,08,20,59,15.20
2016,11,08,21,01,15.20
2016,11,08,21,03,15.20
2016,11,08,21,04,15.20
2016,11,08,21,05,15.20
2016,11,08,21,07,15.20
2016,11,08,21,09,15.20
2016,11,08,21,10,15.20
2016,11,08,21,12,15.20
2016,11,08,21,13,15.20
2016,11,08,21,14,15.20
2016,11,08,21,16,15.20
2016,11,08,21,17,15.20
2016,11,08,21,18,15.20
2016,11,08,21,20,15.20
2016,11,08,21,21,15.20
2016,11,08,21,23,15.20
2016,11,08,21,24,15.20
2016,11,08,21,25,15.10
2016,11,08,21,27,15.10
2016,11,08,21,28,15.10
2016,11,08,21,29,15.10
2016,11,08,21,30,15.10
2016,11,08,21,31,15.10
2016,11,08,21,32,15.10
2016,11,08,21,33,15.10
2016,11,08,21,35,15.10
2016,11,08,21,37,15.20
2016,11,08,21,39,15.10
2016,11,08,21,40,15.10
2016,11,08,21,41,15.10
2016,11,08,21,43,15.10
2016,11,08,21,44,15.10
2016,11,08,21,45,15.10
2016,11,08,21,46,15.10
2016,11,08,21,48,15.00
2016,11,08,21,49,15.00
2016,11,08,21,50,15.00
2016,11,08,21,51,15.00
2016,11,08,21,52,15.00
2016,11,08,21,54,15.00
2016,11,08,21,56,15.00
2016,11,08,21,57,15.00
2016,11,08,21,58,14.90
2016,11,08,21,59,14.90
2016,11,08,22,00,14.90
2016,11,08,22,01,14.90
2016,11,08,22,02,14.90
2016,11,08,22,03,14.90
2016,11,08,22,04,14.90
2016,11,08,22,05,14.90
2016,11,08,22,06,14.90
2016,11,08,22,07,14.90
2016,11,08,22,09,14.90
2016,11,08,22,10,14.90
2016,11,08,22,11,14.90
2016,11,08,22,13,14.90